Regional Weather Roundup
Issued by NWS Boston, MA

Home | Current Version | Previous Version | Text Only | Print | Product List | Glossary On
Versions: 1 2 3 4 5 6 7 8 9 10 11 12 13 14 15 16 17 18 19 20 21 22 23 24 25 26 27
000
ASUS41 KBOX 251710
RWRBOX

REGIONAL WEATHER ROUNDUP
NATIONAL WEATHER SERVICE TAUNTON MA
100 PM EDT MON SEP 25 2017

NOTE:  "FAIR" INDICATES FEW OR NO CLOUDS BELOW 12,000 FEET WITH NO
SIGNIFICANT WEATHER AND/OR OBSTRUCTIONS TO VISIBILITY.

MAZALL-251800-
EASTERN MASSACHUSETTS

CITY           SKY/WX    TMP DP  RH WIND       PRES   REMARKS
BOSTON         MOSUNNY   77  66  68 E8        30.08S
BEVERLY        SUNNY     83  67  58 VRB3      30.08S
LAWRENCE       SUNNY     87  70  56 CALM      30.10S HX  92
BEDFORD        SUNNY     86  65  49 VRB3      30.07S
BLUE HILL        N/A     85  66  53 VRB6      30.09F
NORWOOD        PTSUNNY   90  68  48 CALM      30.06F HX  94
MARSHFIELD     SUNNY     79  63  57 SE7       30.08S
PLYMOUTH       SUNNY     83  62  49 E5        30.08S
TAUNTON        SUNNY     85  65  51 NE5       30.06F
NEW BEDFORD    SUNNY     79  66  64 SE7       30.07S
$$

MAZALL-251800-
CAPE COD AND THE ISLANDS

CITY           SKY/WX    TMP DP  RH WIND       PRES   REMARKS
FALMOUTH       SUNNY     77  68  73 VRB7      30.09F
HYANNIS        SUNNY     76  69  79 S7        30.07F
CHATHAM        CLOUDY    72  68  87 E6        30.10S
PROVINCETOWN   SUNNY     77  68  73 SW8       30.09S
NANTUCKET      CLOUDY    70  68  93 E7        30.08F
MARTHAS VNYRD  SUNNY     76  68  76 E8        30.07F
$$

MAZALL-251800-
CENTRAL AND WESTERN MASSACHUSETTS

CITY           SKY/WX    TMP DP  RH WIND       PRES   REMARKS
WORCESTER      MOSUNNY   82  66  58 SE5       30.12F
FITCHBURG      SUNNY     87  69  54 NE5       30.10S HX  91
ORANGE         SUNNY     87  68  52 E5        30.08F HX  90
SPRINGFIELD    MOSUNNY   88  68  51 CALM      30.06F HX  91
WESTFIELD      SUNNY     87  69  54 CALM      30.07F HX  91
NORTH ADAMS    SUNNY     87  68  52 E8        30.08F HX  90
PITTSFIELD     SUNNY     84  66  54 E5        30.10F
$$

RIZALL-251800-
RHODE ISLAND

CITY           SKY/WX    TMP DP  RH WIND       PRES   REMARKS
PROVIDENCE     MOSUNNY   83  65  54 S5        30.08S
NEWPORT        SUNNY     75  69  81 SE8       30.09R
BLOCK ISLAND   SUNNY     73  66  78 SE5       30.09S
SMITHFIELD     MOSUNNY   84  68  58 VRB5      30.09
WESTERLY       SUNNY     75  67  76 SE9       30.09S
$$

CTZALL-251800-
CONNECTICUT

CITY           SKY/WX    TMP DP  RH WIND       PRES   REMARKS
BRADLEY INTL   MOSUNNY   89  69  51 VRB5      30.07F HX  93
HARTFORD       SUNNY     86  70  58 VRB5      30.06F HX  90
BRIDGEPORT     SUNNY     78  66  66 E8        30.06F
DANBURY        MOSUNNY   86  70  58 VRB3      30.08F HX  90
GROTON         SUNNY     74  67  78 S7        30.08R
NEW HAVEN      SUNNY     82  66  58 SE6       30.07F
CHESTER        NOT AVBL
MERIDEN        SUNNY     88  67  49 VRB3      30.06F HX  91
WILLIMANTIC    SUNNY     88  68  51 W5        30.07S HX  91
OXFORD         MOSUNNY   85  69  58 E3        30.10F
$$

MEZ002-015-021-024-NHZ003-005-008-011-012-014-VTZ005-008-251800-
NORTHERN NEW ENGLAND

CITY           SKY/WX    TMP DP  RH WIND       PRES   REMARKS
PORTLAND ME    MOSUNNY   79  68  69 E9        30.10R
BANGOR ME      MOSUNNY   86  68  54 SW5       30.07F
CONCORD NH     MOSUNNY   88  70  55 SE6       30.08F HX  93
MANCHESTER NH  MOSUNNY   88  70  55 SE8       30.06F HX  93
NASHUA NH      MOSUNNY   87  72  60 SE6       30.09S HX  93
PORTSMOUTH NH  MOSUNNY   82  69  64 E8        30.07S
JAFFREY NH     SUNNY     85  69  58 VRB5      30.12S
KEENE NH       SUNNY     91  69  48 CALM      30.08F HX  96
BURLINGTON VT  MOSUNNY   88  70  55 CALM      30.08F HX  93
MT. WASHINGTON PTSUNNY   61  57  88 S8          N/A
$$

NYZ052-076-251800-
EASTERN NEW YORK

CITY           SKY/WX    TMP DP  RH WIND       PRES   REMARKS
ALBANY         MOSUNNY   85  69  58 NW3       30.08F
NEW YORK CITY  MOSUNNY   82  68  62 NE9       30.05F
$$

ANZALL-251800-
MARINE OBSERVATIONS

STATION/POSITION TIME  TEMP    WIND        PRES    VSBY  WAVE
                       AIR SEA DIR/SP/G                  HT/PER
                 (UTC) (F)     (DEG/KT/KT) (MB)    (MI)  (FT/S)
BOSTON BUOY      1550   70 66   CALM  /  2 1018.8          2/13
BUZZARDS BAY     1600   64     140/ 10/ 10 1019.0S
NANTUCKET SOUND  1550   62 62   30/  4/  4 1018.9          1/ 6
MASS BAY-STELLWA 1604   69 62  320/  2/  2 1018.2F         3/11
ISLE OF SHOALS   1600   66     110/  5/  5 1018.8F
S OF BLOCK IS    NOT AVBL
$$

......................KEY.........................
  SKY/WX - SKY CONDITION/PRESENT WEATHER
  TMP    - TEMPERATURE IN FAHRENHEIT
  DWPT   - DEWPOINT IN FAHRENHEIT
  RH     - RELATIVE HUMIDITY IN PERCENT
  WIND   - DIRECTION AND SPEED IN MPH
  PRES   - MEAN SEA LEVEL PRESSURE IN INCHES OF HG
  WCI    - WIND CHILL INDEX
  VSB    - VISIBILITY IN MILES
  HX     - HEAT INDEX
  TC     - TEMPERATURE IN CELSIUS
  VRB    - VARIABLE WIND DIRECTION
  N/A    - NOT AVAILABLE




USA.gov is the U.S. government's official web portal to all federal, state and local government web resources and services.